AirNav   Air Wisconsin pilot careers
 
 1327 users online  

4M7 Russellville-Logan County Airport
Russellville, Kentucky, USA

GOING TO RUSSELLVILLE?


FAA INFORMATION EFFECTIVE 06 DECEMBER 2018

Location

FAA Identifier: 4M7
Lat/Long: 36-47-58.6000N / 086-48-39.3000W
36-47.976667N / 086-48.655000W
36.7996111 / -86.8109167
(estimated)
Elevation: 691.7 ft. / 210.8 m (surveyed)
Variation: 04W (2020)
From city: 4 miles SE of RUSSELLVILLE, KY
Time zone: UTC -6 (UTC -5 during Daylight Saving Time)
Zip code: 42276

Airport Operations

Airport use: Open to the public
Activation date: 02/1966
Control tower: no
ARTCC: MEMPHIS CENTER
FSS: LOUISVILLE FLIGHT SERVICE STATION
NOTAMs facility: LOU (NOTAM-D service available)
Attendance: 0900-1800
Wind indicator: lighted
Segmented circle: yes
Lights: ACTVT REIL RYS 07 & 25; PAPI RYS 07 & 25; MIRL RY 07/25 - CTAF.
Beacon: white-green (lighted land airport)
Operates sunset to sunrise.

Airport Communications

CTAF/UNICOM: 122.7
WX AWOS-3 at M91 (17 nm S): 120.675 (615-384-8206)
  • APCH/DEP SERVICE PROVIDED BY MEMPHIS ARTCC ON FREQS 133.85/317.6 (NASHVILLE RCAG).

Nearby radio navigation aids

VOR radial/distance  VOR name  Freq  Var
BWGr244/19.3BOWLING GREEN VORTAC117.9002E
CKVr071/30.8CLARKSVILLE VOR/DME110.6001W

Airport Services

Fuel available: 100LL JET-A+
Parking: tiedowns
Airframe service: NONE
Powerplant service: NONE
Bottled oxygen: NONE
Bulk oxygen: NONE

Runway Information

Runway 7/25

Dimensions: 4500 x 75 ft. / 1372 x 23 m
Surface: asphalt, in good condition
Weight bearing capacity: 
Single wheel: 12.5
Runway edge lights: medium intensity
RUNWAY 7  RUNWAY 25
Latitude: 36-47.810572N36-48.141762N
Longitude: 086-49.067543W086-48.242477W
Elevation: 691.7 ft.655.1 ft.
Gradient: 0.9% DOWN0.9% UP
Traffic pattern: leftleft
Runway heading: 067 magnetic, 063 true247 magnetic, 243 true
Markings: nonprecision, in good conditionnonprecision, in good condition
Visual slope indicator: 2-light PAPI on left (3.00 degrees glide path)2-light PAPI on left (3.00 degrees glide path)
Runway end identifier lights: yesyes
Touchdown point: yes, no lightsyes, no lights
Obstructions: none30 ft. trees, 1241 ft. from runway, 235 ft. right of centerline, 34:1 slope to clear

Airport Ownership and Management from official FAA records

Ownership: Publicly-owned
Owner: CITY COUNTY ARPT BOARD
385 AIRPORT RD.
RUSSELLVILLE, KY 42276
Phone (270) 847-7622
AIRPORT BOARD CHAIRMAN STEVE DILLIHA
Manager: CAROL SOBEY
385 AIRPORT RD.
RUSSELLVILLE, KY 42276
Phone 270-726-3214

Airport Operational Statistics

Aircraft based on the field: 20
Single engine airplanes: 18
Multi engine airplanes: 2
    
Aircraft operations: avg 51/day *
46% local general aviation
27% transient general aviation
24% military
3% air taxi
* for 12-month period ending 22 November 2016

Additional Remarks

DEER ON & INVOF ARPT.
WILDLIFE NEAR ARPT.

Instrument Procedures

NOTE: All procedures below are presented as PDF files. If you need a reader for these files, you should download the free Adobe Reader.

NOT FOR NAVIGATION. Please procure official charts for flight.
FAA instrument procedures published for use from 6 December 2018 at 0901Z to 3 January 2019 at 0900Z.

 
IAPs - Instrument Approach Procedures
RNAV (GPS) RWY 07   download (159KB)
RNAV (GPS) RWY 25   download (188KB)
NOTE: Special Take-Off Minimums/Departure Procedures apply   download (235KB)

Other nearby airports with instrument procedures:

M91 - Springfield Robertson County Airport (17 nm S)
1M5 - Portland Municipal Airport (20 nm SE)
KBWG - Bowling Green-Warren County Regional Airport (21 nm NE)
M21 - Muhlenberg County Airport (30 nm NW)
KCKV - Outlaw Field Airport (31 nm W)
 
Loc | Ops | Rwys | IFR | FBO | Links
Com | Nav | Svcs | Stats | Notes


 
Area around 4M7 (Russellville-Logan County Airport)
 
Road maps at: MapQuest Bing Google
 
Aerial photo
WARNING: Photo may not be current or correct
Aerial photo of 4M7 (Russellville-Logan County Airport)
Photo by Vickie Jost
Photo taken 05-Aug-2013
looking northeast.

Do you have a better or more recent aerial photo of Russellville-Logan County Airport that you would like to share? If so, please send us your photo.

 
Sectional chart

 
Airport distance calculator
Flying to Russellville-Logan County Airport? Find the distance to fly.

From to 4M7

Sunrise and sunset
Times for 18-Dec-2018
 Local
(UTC-6)
 Zulu
(UTC)
Morning civil twilight06:2712:27
Sunrise06:5612:56
Sunset16:3222:32
Evening civil twilight17:0123:01

Current date and time
Zulu (UTC)  18-Dec-2018 21:58:58
Local (UTC-6)  18-Dec-2018 15:58:58
 
METAR
KM91 
17nm S 
182135Z AUTO 01006KT 10SM CLR 10/M02 A3010 RMK A01
K1M5 
20nm SE 
182135Z AUTO 00000KT 10SM CLR 10/M03 A3011 RMK A01
KBWG 
21nm NE 
182153Z AUTO 07003KT 10SM CLR 08/M01 A3014 RMK AO2 SLP209 T00831011
KM21 
30nm NW 
182135Z AUTO 00000KT 10SM CLR 09/M01 A3014 RMK AO2 T00851007
KCKV 
31nm W 
182152Z AUTO 05004KT 10SM CLR 10/M03 A3012 RMK AO2 SLP203 T01001033
KXNX 
32nm SE 
182135Z AUTO 00000KT 10SM CLR 12/M04 A3014 RMK A01
TAF
KBWG 
21nm NE 
181721Z 1818/1918 07006KT P6SM SCT250 FM191700 19007KT P6SM FEW250
NOTAMs
Click for the latest NOTAMs
NOTAMs are issued by the DoD/FAA and will open in a separate window not controlled by AirNav.

 

 
 

FBO, Fuel Providers, and Aircraft Ground Support

  
 Business Name 
 
 Contact 
 
 Services / Description 
 
Fuel Prices
 
Comments
  
Russellville-Logan County Airport 270-726-3214
270-847-7379
[web site]
[email]
Airport management, Aviation fuel, Aircraft parking (ramp or tiedown), Hangars, Hangar leasing / sales, Passenger terminal and lounge, ...

More info about Russellville-Logan County Airport
Shell
100LL Jet A
AS $4.77 $3.75 
 Updated 03-Dec-2018
 
   5 read write
AS=Assisted/Self Service
Update Fuel Prices
 

Would you like to see your business listed on this page?

 If your business provides an interesting product or service to pilots, flight crews, aircraft, or users of the Russellville-Logan County Airport, you should consider listing it here.  To start the listing process, click on the button below
 
Add a business
 

Other Pages about Russellville-Logan County Airport

Update a link
 
Copyright © AirNav, LLC. All rights reserved. Privacy Policy  Contact